Location: Baili�vre
(50.0696°N, 4.2409°E)
Time: 03:43:50
(UTC+00:00)

SL-4 R/B - Pass Details

Date: 08 August 2020
Orbit: 428 x 665 km, 51.6° (Epoch: 23 September)

Event Time Altitude Azimuth Distance (km) Brightness Sun altitude
Rises 20:41:44 0° 225° (SW) 2,672 5.5 -12.4°
Reaches altitude 10° 20:44:08 10° 217° (SW) 1,740 4.5 -12.7°
Maximum altitude 20:47:46 37° 149° (SSE) 773 2.3 -13.1°
Drops below altitude 10° 20:51:10 10° 81° (E) 1,629 4.1 -13.5°
Enters shadow 20:51:28 - 79° (E) 1,742 4.3 -13.5°
